Date String (YYYY-MM-DD hh:mm:ss) UTC,Instrument flags,Ambient pressure (hPa),Sample flow (lpm),Bypass flow (lpm),Sample temperature (°C),Ambient temperature (°C),ASC tube jacket temperature (°C),LED temperature (°C),Box temperature (°C),Sample RH (%),Span deviation,Mass concentration (μg/m³),Mass concentration (μg/m³),Mass concentration (μg/m³)
DateTimeUTC,F1_M11,P_M11,Q1_M11,Q2_M11,T1_M11,T2_M11,T3_M11,T4_M11,T5_M11,U1_M11,ZSPAN_M11,X0_M11,X2_M11,X1_M11
2022-10-02 01:00:00,,0828.1,4.99,0.00,29.8,27.4,00.0,38.6,31.5,26.0,0000.0,0007.68,0003.39,0001.80
2022-10-02 01:01:00,,0828.1,5.00,0.00,29.8,27.6,00.0,38.6,31.6,26.4,0000.0,0007.71,0003.40,0001.80
2022-10-02 01:02:00,,0828.3,5.00,0.00,29.8,27.8,00.0,38.6,31.6,26.3,0000.0,0007.95,0003.45,0001.82
2022-10-02 01:03:00,,0828.2,5.00,0.00,29.8,28.0,00.0,38.6,31.6,26.1,0000.0,0008.04,0003.50,0001.82
2022-10-02 01:04:00,,0828.3,4.99,0.00,29.8,28.1,00.0,38.6,31.6,26.0,0000.0,0008.13,0003.53,0001.81
2022-10-02 01:05:00,,0828.3,4.99,0.00,29.8,28.3,00.0,38.6,31.6,25.6,0000.0,0008.09,0003.51,0001.78
2022-10-02 01:06:00,,0828.3,5.01,0.00,29.8,28.3,00.0,38.5,31.7,25.5,0000.0,0007.74,0003.38,0001.76
2022-10-02 01:07:00,,0828.4,4.99,0.00,29.8,28.4,00.0,38.5,31.7,25.5,0000.0,0007.70,0003.35,0001.76
2022-10-02 01:08:00,,0828.4,4.99,0.00,29.8,28.5,00.0,38.6,31.7,25.4,0000.0,0007.71,0003.34,0001.75
2022-10-02 01:09:00,,0828.3,5.01,0.00,29.8,28.5,00.0,38.6,31.7,25.3,0000.0,0008.28,0003.33,0001.75
2022-10-02 01:10:00,,0828.3,4.99,0.00,29.9,28.5,00.0,38.6,31.7,25.1,0000.0,0008.19,0003.31,0001.75
2022-10-02 01:11:00,,0828.3,5.00,0.00,29.9,28.5,00.0,38.6,31.8,25.0,0000.0,0008.00,0003.26,0001.74
2022-10-02 01:12:00,,0828.3,5.01,0.00,29.9,28.6,00.0,38.6,31.8,24.9,0000.0,0008.49,0003.25,0001.74
2022-10-02 01:13:00,,0828.3,4.99,0.00,29.9,28.6,00.0,38.6,31.8,24.8,0000.0,0008.95,0003.15,0001.70
2022-10-02 01:14:00,,0828.3,5.00,0.00,29.9,28.6,00.0,38.6,31.8,24.6,0000.0,0008.69,0003.04,0001.68
2022-10-02 01:15:00,,0828.4,5.00,0.00,29.9,28.6,00.0,38.6,31.9,24.6,0000.0,0008.63,0002.99,0001.67
2022-10-02 01:16:00,,0828.4,4.99,0.00,29.9,28.7,00.0,38.6,31.9,24.5,0000.0,0008.70,0002.93,0001.67
2022-10-02 01:17:00,,0828.5,5.01,0.00,30.0,28.7,00.0,38.6,31.9,24.6,0000.0,0008.80,0002.96,0001.66
2022-10-02 01:18:00,,0828.5,4.98,0.00,30.0,28.7,00.0,38.7,31.9,24.7,0000.0,0008.68,0002.90,0001.63
2022-10-02 01:19:00,,0828.5,5.01,0.00,30.0,28.7,00.0,38.7,31.9,25.1,0000.0,0008.61,0002.93,0001.61
2022-10-02 01:20:00,,0828.5,5.00,0.00,30.0,28.8,00.0,38.7,31.9,25.7,0000.0,0008.33,0003.05,0001.69
2022-10-02 01:21:00,,0828.7,4.99,0.00,30.0,28.8,00.0,38.7,32.0,25.0,0000.0,0008.52,0003.01,0001.71
2022-10-02 01:22:00,,0828.9,5.00,0.00,30.1,28.8,00.0,38.7,32.0,24.7,0000.0,0008.47,0002.98,0001.71
2022-10-02 01:23:00,,0829.1,4.99,0.00,30.1,28.8,00.0,38.7,32.0,24.8,0000.0,0007.74,0002.95,0001.69
2022-10-02 01:24:00,,0829.0,5.01,0.00,30.1,28.9,00.0,38.8,32.0,24.7,0000.0,0007.28,0003.06,0001.70
2022-10-02 01:25:00,,0829.0,4.99,0.00,30.1,28.9,00.0,38.8,32.0,24.2,0000.0,0007.31,0003.08,0001.70
2022-10-02 01:26:00,,0829.1,5.00,0.00,30.1,28.9,00.0,38.8,32.0,23.7,0000.0,0007.38,0003.08,0001.69
2022-10-02 01:27:00,,0829.1,5.01,0.00,30.1,28.9,00.0,38.8,32.1,23.7,0000.0,0007.03,0003.02,0001.67
2022-10-02 01:28:00,,0829.1,4.99,0.00,30.2,28.9,00.0,38.8,32.1,23.7,0000.0,0006.75,0002.95,0001.68
2022-10-02 01:29:00,,0828.9,5.00,0.00,30.2,28.9,00.0,38.8,32.1,24.0,0000.0,0006.90,0003.02,0001.71
2022-10-02 01:30:00,,0828.7,5.00,0.00,30.2,28.9,00.0,38.9,32.1,24.4,0000.0,0007.03,0003.10,0001.82
2022-10-02 01:31:00,,0828.7,4.99,0.00,30.2,28.9,00.0,38.9,32.1,24.0,0000.0,0006.23,0002.93,0001.77
2022-10-02 01:32:00,,0828.9,4.99,0.00,30.2,29.0,00.0,38.9,32.1,23.6,0000.0,0005.63,0002.92,0001.75
2022-10-02 01:33:00,,0828.9,5.01,0.00,30.2,29.0,00.0,38.9,32.1,23.3,0000.0,0005.66,0002.91,0001.74
2022-10-02 01:34:00,,0828.6,4.99,0.00,30.2,28.5,00.0,38.9,32.1,23.3,0000.0,0005.52,0002.85,0001.72
2022-10-02 01:35:00,,0829.0,5.00,0.00,30.2,26.9,00.0,38.9,32.0,23.1,0000.0,0005.22,0002.77,0001.71
2022-10-02 01:36:00,,0829.0,5.02,0.00,30.2,26.3,00.0,38.8,31.9,23.1,0000.0,0005.20,0002.74,0001.69
2022-10-02 01:37:00,,0829.1,5.00,0.00,30.0,26.5,00.0,38.8,31.7,23.4,0000.0,0004.90,0002.67,0001.69
2022-10-02 01:38:00,,0829.2,5.00,0.00,29.9,26.8,00.0,38.7,31.6,23.7,0000.0,0005.14,0002.62,0001.69
2022-10-02 01:39:00,,0829.1,5.01,0.00,29.9,27.1,00.0,38.7,31.6,23.8,0000.0,0005.12,0002.58,0001.69
2022-10-02 01:40:00,,0829.1,5.00,0.00,29.9,27.4,00.0,38.7,31.6,23.6,0000.0,0004.93,0002.53,0001.70
2022-10-02 01:41:00,,0829.1,4.99,0.00,29.8,27.7,00.0,38.6,31.6,23.4,0000.0,0004.56,0002.34,0001.59
2022-10-02 01:42:00,,0829.2,5.01,0.00,29.8,27.9,00.0,38.6,31.6,23.6,0000.0,0004.71,0002.28,0001.57
2022-10-02 01:43:00,,0829.2,4.99,0.00,29.8,28.0,00.0,38.6,31.6,23.5,0000.0,0004.85,0002.27,0001.57
2022-10-02 01:44:00,,0829.2,5.00,0.00,29.8,28.1,00.0,38.6,31.6,23.5,0000.0,0004.81,0002.26,0001.59
2022-10-02 01:45:00,,0829.2,5.01,0.00,29.8,28.2,00.0,38.6,31.7,23.6,0000.0,0005.01,0002.32,0001.61
2022-10-02 01:46:00,,0829.1,5.01,0.00,29.8,28.3,00.0,38.6,31.7,23.9,0000.0,0005.11,0002.37,0001.61
2022-10-02 01:47:00,,0828.8,5.00,0.00,29.8,28.3,00.0,38.6,31.7,24.1,0000.0,0005.13,0002.38,0001.61
2022-10-02 01:48:00,,0829.0,5.01,0.00,29.8,28.4,00.0,38.6,31.7,24.2,0000.0,0005.28,0002.43,0001.62
2022-10-02 01:49:00,,0828.7,5.00,0.00,29.8,28.5,00.0,38.6,31.7,24.1,0000.0,0004.91,0002.47,0001.63
2022-10-02 01:50:00,,0828.7,5.00,0.00,29.9,28.5,00.0,38.6,31.7,23.9,0000.0,0004.89,0002.48,0001.61
2022-10-02 01:51:00,,0828.7,5.01,0.00,29.9,28.5,00.0,38.6,31.7,23.8,0000.0,0004.82,0002.44,0001.58
2022-10-02 01:52:00,,0828.7,4.99,0.00,29.9,28.5,00.0,38.6,31.8,23.5,0000.0,0004.72,0002.40,0001.56
2022-10-02 01:53:00,,0828.7,5.00,0.00,29.9,28.6,00.0,38.6,31.8,23.5,0000.0,0004.45,0002.37,0001.51
2022-10-02 01:54:00,,0828.7,5.00,0.00,29.9,28.6,00.0,38.6,31.8,23.6,0000.0,0004.40,0002.35,0001.50
2022-10-02 01:55:00,,0828.7,5.00,0.00,29.9,28.6,00.0,38.6,31.8,23.6,0000.0,0004.32,0002.34,0001.51
2022-10-02 01:56:00,,0829.0,5.01,0.00,29.9,28.7,00.0,38.7,31.9,23.8,0000.0,0004.15,0002.31,0001.51
2022-10-02 01:57:00,,0829.3,4.99,0.00,30.0,28.7,00.0,38.7,31.9,24.0,0000.0,0003.99,0002.25,0001.52
2022-10-02 01:58:00,,0829.3,5.00,0.00,30.0,28.7,00.0,38.7,31.9,23.8,0000.0,0004.30,0002.24,0001.54
2022-10-02 01:59:00,,0828.9,5.01,0.00,30.0,28.7,00.0,38.7,31.9,23.7,0000.0,0004.18,0002.23,0001.56
